Location: Helsinki
(60.1699°N, 24.9384°E)
Time: 00:28:47
(UTC+02:00)

Vanguard 2 Rocket - Pass Details

Date: 25 September 2023
Orbit: 553 x 3312 km, 32.9° (Epoch: 28 November)

Event Time Altitude Azimuth Distance (km) Brightness Sun altitude
Rises 11:17:00 0° 185° (S) 6,784 12.1 25.1°
Reaches altitude 10° 11:25:09 10° 165° (SSE) 6,123 12.7 25.6°
Maximum altitude 11:32:59 14° 141° (SE) 5,924 12.9 26.1°
Drops below altitude 10° 11:40:52 10° 117° (ESE) 6,200 12.1 26.5°
Sets 11:49:07 0° 97° (E) 6,937 11.8 26.9°
